Lapse_Rate
3.3 3.5 3.9 3.7 3.7 3.5 3.8 3.8 4.1 4.4 4.7 5.1 5.8 5.7 5.3 4.3 4.5 4.6 4.2 4.3 4.5 5.4
3.7 3.7 3.0 2.6 3.2 3.7 4.2 5.1 4.4 5.0 5.4 5.7 5.5 5.8 5.2 4.5 4.6 4.7 4.7 4.7 4.8 4.9
4.0 3.1 3.2 3.4 4.0 4.1 4.1 4.4 4.2 5.1 5.3 5.1 6.0 6.5 6.2 5.7 5.6 5.6 5.6 5.6 5.2 4.9
4.0 3.6 3.2 3.0 3.0 3.6 3.8 4.0 4.2 5.2 5.9 6.4 6.2 6.4 6.7 6.7 6.5 6.1 5.6 4.7 4.8 5.7
4.0 3.5 3.4 2.9 3.0 3.7 4.5 4.3 4.4 5.1 5.8 6.3 6.4 6.4 5.9 5.7 5.1 4.8 4.8 4.9 5.3 5.7
4.3 3.5 3.6 3.6 3.7 3.9 4.4 4.3 4.8 5.6 6.1 6.4 6.2 5.4 4.9 4.6 4.6 4.5 4.8 5.0 5.3 5.4
4.2 3.4 3.5 3.7 3.5 4.0 4.8 5.1 5.6 6.1 6.5 6.1 4.9 5.0 4.8 4.7 4.0 4.0 4.7 4.7 4.7 5.1
4.2 3.8 4.1 4.5 4.6 5.8 6.8 6.6 6.8 6.6 5.6 5.1 5.1 5.4 4.2 4.3 4.2 4.2 4.4 4.9 5.5 6.3
4.9 5.2 4.6 5.1 4.9 5.9 6.9 6.8 6.4 5.7 5.5 5.1 6.1 5.4 5.6 5.1 4.1 4.9 5.5 5.4 5.9 6.1
6.0 5.8 5.7 5.5 5.6 5.4 4.9 6.7 6.8 5.7 5.0 4.4 4.6 6.0 6.9 7.1 5.7 5.3 5.3 5.5 5.8 6.8
5.5 5.5 5.4 4.9 4.0 4.8 5.3 5.9 6.7 4.5 4.3 4.4 5.7 6.3 6.7 7.1 5.7 5.4 5.6 5.9 6.2 6.4
5.3 5.4 5.1 5.5 4.8 4.6 5.3 5.8 4.5 4.3 4.2 4.5 4.5 6.1 7.0 5.3 4.1 5.5 5.8 6.9 6.8 7.2
5.8 5.5 5.6 5.2 5.3 5.8 5.8 5.3 4.5 4.9 4.6 5.7 4.7 6.5 7.0 6.7 4.0 2.5 5.9 6.6 7.1 7.6
5.4 5.4 7.1 6.1 6.4 5.0 4.8 4.4 3.7 3.0 4.3 5.0 5.0 4.7 6.9 7.1 4.5 5.6 7.7 7.3 6.9 6.7
Wind_Speed
5 3 2 2 1 3 2 1 3 2 1 2 3 3 5 2 3 4 4 4 3 2
3 4 4 5 3 2 1 2 4 3 4 5 7 6 5 4 5 4 5 5 5 3
2 4 4 3 3 2 1 2 3 4 5 5 6 6 3 4 5 5 5 4 4 4
0 4 4 4 4 3 1 1 3 4 4 4 5 6 4 5 5 4 4 5 5 5
3 5 5 5 5 3 3 2 4 4 5 5 5 5 4 4 5 5 5 5 5 5
5 6 6 6 6 5 5 5 5 4 4 4 4 4 5 5 4 4 3 4 5 7
7 7 5 6 6 5 6 5 4 3 2 2 5 4 4 3 2 3 4 4 5 6
6 5 6 5 6 5 6 4 4 3 3 5 4 3 3 1 2 4 4 5 5 5
7 5 5 5 6 4 5 5 4 3 5 4 2 4 3 3 4 4 5 5 5 5
5 4 3 5 4 7 8 8 0 4 4 2 2 4 6 8 4 4 5 6 6 7
4 5 5 3 4 4 2 7 2 4 3 3 3 7 8 9 4 4 5 6 6 7
4 5 4 4 5 7 4 2 3 4 3 3 4 9 10 7 4 5 6 6 7 10
5 5 5 5 7 4 1 4 3 3 2 2 3 9 10 9 1 3 6 6 9 15
5 5 4 6 2 4 4 4 3 1 1 1 4 5 10 14 3 4 6 7 7 7
Wind_Direction
64 62 17 16 69 53 78 161 233 244 28 353 314 324 320 301 291 274 259 267 252 231
38 42 90 96 105 105 135 223 229 269 261 274 284 282 277 266 272 263 271 270 269 267
39 123 133 143 125 100 346 330 316 295 242 250 262 286 304 297 282 270 271 269 275 278
62 174 164 155 163 175 202 338 327 289 289 311 308 294 288 292 305 340 23 20 13 336
236 198 201 192 191 206 222 235 261 282 292 314 311 327 354 42 46 31 16 352 346 333
268 220 225 218 216 221 238 250 259 256 279 302 0 75 75 71 51 26 7 334 324 316
277 236 237 234 233 242 252 257 272 255 238 56 123 108 83 72 29 347 324 309 297 292
296 238 233 250 262 278 281 259 222 211 87 131 137 123 115 157 292 302 295 288 282 291
307 261 218 247 257 265 296 299 214 120 140 164 134 153 213 236 268 288 279 287 284 278
337 318 320 309 356 346 311 271 196 123 131 115 205 217 313 311 259 271 279 284 286 300
336 305 289 329 55 60 294 274 246 130 92 40 323 331 327 330 332 310 295 293 292 293
302 286 253 235 231 234 221 256 110 97 76 12 329 348 11 37 12 344 316 309 307 306
316 292 277 253 268 297 98 106 114 89 49 12 19 10 18 17 331 315 317 314 310 310
317 312 312 326 312 99 102 122 99 107 336 81 47 15 18 0 341 318 328 321 317 314